星链-11668 (STARLINK-11668)

导读

STARLINK-11668是美国SpaceX公司星链(Starlink)星座的卫星,于2025年4月13日发射。星链星座旨在构建全球卫星互联网,为全球用户提供高速网络服务,覆盖偏远地区、海洋、航空等场景,满足日常上网、视频通话、在线游戏等需求。该卫星运行在近地轨道,属于SpaceX大规模星座部署的一部分,助力星链实现全球宽带互联网覆盖,推动全球互联互通。作为美国主导的低轨巨型星座组成部分,它将进一步完善星链星座的服务能力。

基本信息
目录编号:
63557
目录名称:
STARLINK-11668
国际标识:
2025-075K
轨道中心:
EARTH
卫星名称:
星链-11668
卫星全名:
星链-11668 (STARLINK-11668)
卫星状态:
在轨 (已飞行516 天)
发射日期:
2025-04-13 UTC
国别 :
美国 (US)
星等 :
--
该卫星已列入 空间交会检测服务 Space Conjunction Data Service (SCDS) ,当前飞行风险评估等级: 无高风险
轨道信息
数据来源 国际轨道数据
星历时间: 2026-09-11T08:36:28+0800
13小时前
查看轨道信息
半长轴: 6734.581km
偏心率: 0.0001928
轨道倾角: 43.001°
近地点辐角 267.589°
升交点赤经 116.968°
平近点角 92.476°
近地点: 355.145km
远地点: 357.743km
周期: 91.670分钟
每日圈数: 15.708579
详细信息
固有亮度:
5
最大亮度:
2.5
卫星平台:
Starlink V1.0
覆盖范围:
全球
运营商:
太空探索技术公司
运营商所在国:
美国
制造商(研发单位):
太空探索技术公司
制造商所在国:
美国
使用方式:
暂无
卫星简介
Starlink 计划是 SpaceX 推出的全球卫星互联网项目,通过发射低轨道卫星,为全球尤其是偏远地区提供高速、低延迟的互联网服务。自 2019 年起,Starlink 已部署数千颗卫星,旨在缩小全球数字鸿沟,推动互联网普及。该项目还为军事、航空等行业提供通信支持,带来广泛经济效益。
2D轨道图
3D轨道图
轨道高度分析图
轨道倾角分析图
轨道综合分析图
查看轨道综合分析图
交会数据列表
事件ID 空间交会对象 最接近时刻(TCA) 交会距离 交会风险概率(CRP) 交会风险指数(CRI) 操作
CDM_260912-060506-201406-355721
2026-09-12T
06:05:45+0000
1.695 km
极远距离
3.118873E-6 低风险 0.45
与全量物体交会距离演化趋势
与全量物体交会风险概率演化趋势